Regional Weather Roundup
Issued by NWS

Home | Current Version | Previous Version | Graphics & Text | Print | Product List | Glossary On
Versions: 1 2 3 4 5 6 7 8 9 10 11 12 13 14 15 16 17 18 19 20 21 22 23 24 25 26 27 28 29 30 31 32 33 34 35 36 37 38 39 40 41 42 43 44 45 46 47 48 49 50
000
ASUS43 KBIS 280202
RWRND

NORTH DAKOTA REGIONAL WEATHER ROUNDUP
NATIONAL WEATHER SERVICE BISMARCK ND
900 PM CDT SAT AUG 27 2016

NOTE: "FAIR" INDICATES FEW OR NO CLOUDS BELOW 12,000 FEET WITH NO
SIGNIFICANT WEATHER AND/OR OBSTRUCTIONS TO VISIBILITY.


NDZ001>003-009>011-017-280300-
NORTHWEST NORTH DAKOTA

CITY           SKY/WX    TMP DP  RH WIND       PRES   REMARKS
WILLISTON      CLEAR     75  43  31 SE7       29.79S
MINOT          CLEAR     68  46  45 SE7       29.85S
MINOT AFB      CLEAR     64  46  50 E6        29.85R
$$

NDZ018>021-031>035-040>046-280300-
SOUTHWEST NORTH DAKOTA

CITY           SKY/WX    TMP DP  RH WIND       PRES   REMARKS
BISMARCK       CLEAR     63  54  72 SE6       29.88S
DICKINSON      CLEAR     66  43  43 SE12      29.85S
GARRISON         N/A     65  48  54 E7        29.86S
HETTINGER ARPT CLOUDY    69  48  47 SE7       29.89R
$$

NDZ004>008-012>016-024-026-027-054-280300-
NORTHEAST NORTH DAKOTA

CITY           SKY/WX    TMP DP  RH WIND       PRES   REMARKS
GRAND FORKS    CLEAR     62  57  83 S7        29.92R
GRND FRKS AFB  CLEAR     59  55  88 S6        29.93R
DEVILS LAKE    CLEAR     66  56  70 SE5       29.91
$$

NDZ022-023-025-028>030-036>039-047>053-280300-
SOUTHEAST NORTH DAKOTA

CITY           SKY/WX    TMP DP  RH WIND       PRES   REMARKS
FARGO          MOCLDY    63  56  78 E9        29.97R
JAMESTOWN      CLEAR     64  62  93 E8        29.92R
$$





USA.gov is the U.S. government's official web portal to all federal, state and local government web resources and services.